Change the Weather History Date:

Tuesday, April 9, 2013

  Actual Average Record
Temperature  
Mean Temperature 70 °F -  
Max Temperature 84 °F 70 °F 91 °F (2001)
Min Temperature 57 °F 48 °F 31 °F (2007)
Cooling Degree Days 5    
Growing Degree Days 20 (Base 50)    
Moisture  
Dew Point 58 °F    
Average Humidity 64    
Maximum Humidity 95    
Minimum Humidity 40    
Precipitation  
Precipitation 0.00 in - - ()
Sea Level Pressure  
Sea Level Pressure 30.15 in    
Wind  
Wind Speed 8 mph (WSW)    
Max Wind Speed 14 mph    
Max Gust Speed 18 mph    
Visibility 10 miles    
Events      
Averages and records for this station are not official NWS values.
T = Trace of Precipitation, MM = Missing Value Source: NWS Daily Summary

Daily Weather History Graph

Daily Weather History Graph

Search for Another Location

Airport or City:

Trip Planner

Search our weather history database for the weather conditions in past years. The results will help you decide how hot, cold, wet, or windy it might be!

Date:

Astronomy

Apr. 09, 2013 Rise Set
Actual Time 6:51 AM EDT 7:44 PM EDT
Civil Twilight 6:25 AM EDT 8:09 PM EDT
Nautical Twilight 5:55 AM EDT 8:40 PM EDT
Astronomical Twilight 5:23 AM EDT 9:12 PM EDT
Moon 6:12 AM EDT (4/9) 7:17 PM EDT (4/9)
Length of Visible Light 13h 44m
Length of Day
12h 52m
Waning Crescent, 1% of the Moon is Illuminated
Apr 9
Waning Crescent
Apr 10
New
Apr 18
First Quarter
Apr 25
Full
May 2
Last Quarter

Hourly Weather History & Observations

Time (EDT) Temp. Heat Index Dew Point Humidity Pressure Visibility Wind Dir Wind Speed Gust Speed Precip Events Conditions
12:58 AM 64.4 °F - 56.8 °F 76% 30.14 in 10.0 mi SSW 10.4 mph - N/A   Clear
1:58 AM 64.0 °F - 57.9 °F 80% 30.14 in 10.0 mi SW 9.2 mph - N/A   Clear
2:58 AM 62.4 °F - 58.1 °F 86% 30.13 in 10.0 mi SW 8.1 mph - N/A   Clear
3:58 AM 60.4 °F - 57.4 °F 90% 30.14 in 10.0 mi WSW 5.8 mph - N/A   Clear
4:58 AM 60.6 °F - 57.9 °F 91% 30.15 in 10.0 mi SW 2.3 mph - N/A   Partly Cloudy
5:58 AM 58.5 °F - 56.8 °F 94% 30.16 in 10.0 mi West 3.5 mph - N/A   Clear
6:58 AM 57.9 °F - 56.5 °F 95% 30.18 in 10.0 mi WSW 2.3 mph - N/A   Clear
7:58 AM 60.4 °F - 59.0 °F 95% 30.21 in 10.0 mi West 4.6 mph - N/A   Clear
8:58 AM 64.8 °F - 60.6 °F 86% 30.21 in 10.0 mi WSW 9.2 mph - N/A   Clear
9:58 AM 70.9 °F - 59.9 °F 68% 30.21 in 10.0 mi West 9.2 mph - N/A   Clear
10:58 AM 75.4 °F - 58.1 °F 55% 30.21 in 10.0 mi WNW 13.8 mph - N/A   Clear
11:58 AM 79.3 °F - 57.9 °F 48% 30.20 in 10.0 mi WSW 8.1 mph - N/A   Clear
12:58 PM 81.1 °F 81.3 °F 57.9 °F 45% 30.17 in 10.0 mi West 8.1 mph - N/A   Clear
1:58 PM 82.4 °F 82.0 °F 57.2 °F 42% 30.15 in 10.0 mi West 11.5 mph 18.4 mph N/A   Scattered Clouds
2:58 PM 81.0 °F 81.2 °F 58.1 °F 46% 30.13 in 10.0 mi SW 6.9 mph - N/A   Partly Cloudy
3:58 PM 82.8 °F 82.1 °F 56.3 °F 40% 30.11 in 10.0 mi SW 9.2 mph - N/A   Partly Cloudy
4:58 PM 83.5 °F 82.8 °F 56.7 °F 40% 30.09 in 10.0 mi WSW 12.7 mph - N/A   Scattered Clouds
5:58 PM 82.4 °F 82.0 °F 56.8 °F 42% 30.10 in 10.0 mi SW 11.5 mph - N/A   Partly Cloudy
6:58 PM 80.8 °F 80.9 °F 57.0 °F 44% 30.10 in 10.0 mi SW 11.5 mph - N/A   Clear
7:58 PM 78.1 °F - 57.2 °F 49% 30.10 in 10.0 mi SSW 6.9 mph - N/A   Clear
8:58 PM 75.9 °F - 57.6 °F 53% 30.12 in 10.0 mi SSW 8.1 mph - N/A   Clear
9:58 PM 74.5 °F - 57.6 °F 55% 30.13 in 10.0 mi SSW 11.5 mph - N/A   Clear
10:58 PM 72.1 °F - 58.3 °F 62% 30.12 in 10.0 mi SSW 10.4 mph - N/A   Clear
11:58 PM 70.2 °F - 57.7 °F 65% 30.11 in 10.0 mi SSW 9.2 mph - N/A   Clear